DLH255 EDDN-EDDF

Flight info

Callsign DLH255
Flight time N/A
Altitude 24000
Route SUKAD1C SUKAD DCT PIWAW T159 SPESA SPESA4C
Aircraft A20N/M-SDE2E3FGHIRWXY/LB1

Departure

Time 2026-04-28 15:51
Airport Nuremberg Airport (EDDN)

Arrival

Time N/A
Airport Frankfurt Main Airport (EDDF)
Time Latitude Longitude Altitude Speed Heading
2026-04-28 15:35 49.49536 11.07585 1032 ft 0 kts 188°
2026-04-28 15:42 49.49542 11.07587 1032 ft 0 kts 188°
2026-04-28 15:42 49.49546 11.07588 1032 ft 2 kts 188°
2026-04-28 15:42 49.49560 11.07591 1033 ft 2 kts 188°
2026-04-28 15:42 49.49575 11.07595 1034 ft 2 kts 188°
2026-04-28 15:43 49.49590 11.07598 1036 ft 2 kts 180°
2026-04-28 15:43 49.49604 11.07593 1036 ft 2 kts 118°
2026-04-28 15:43 49.49606 11.07570 1036 ft 2 kts 91°
2026-04-28 15:43 49.49606 11.07563 1036 ft 0 kts 97°
2026-04-28 15:45 49.49604 11.07594 1037 ft 6 kts 97°
2026-04-28 15:46 49.49596 11.07680 1037 ft 10 kts 97°
2026-04-28 15:46 49.49619 11.07763 1039 ft 8 kts 32°
2026-04-28 15:46 49.49669 11.07762 1042 ft 7 kts 333°
2026-04-28 15:46 49.49691 11.07676 1043 ft 13 kts 278°
2026-04-28 15:47 49.49712 11.07487 1041 ft 23 kts 282°
2026-04-28 15:47 49.49734 11.07235 1037 ft 23 kts 277°
2026-04-28 15:47 49.49757 11.06998 1033 ft 21 kts 278°
2026-04-28 15:47 49.49783 11.06759 1029 ft 24 kts 276°
2026-04-28 15:48 49.49807 11.06489 1029 ft 26 kts 279°
2026-04-28 15:48 49.49834 11.06217 1030 ft 21 kts 278°
2026-04-28 15:48 49.49849 11.06064 1032 ft 9 kts 280°
2026-04-28 15:48 49.49892 11.05980 1034 ft 12 kts 334°
2026-04-28 15:49 49.49951 11.05943 1033 ft 0 kts 340°
2026-04-28 15:49 49.49973 11.05935 1033 ft 10 kts 349°
2026-04-28 15:49 49.50041 11.05995 1033 ft 13 kts 70°
2026-04-28 15:50 49.50041 11.06071 1033 ft 0 kts 97°
2026-04-28 15:50 49.50018 11.06306 1032 ft 59 kts 99°
2026-04-28 15:50 49.49921 11.07291 1041 ft 123 kts 99°
2026-04-28 15:50 49.49773 11.08809 1207 ft 155 kts 99°
2026-04-28 15:51 49.49595 11.10490 1766 ft 164 kts 100°
2026-04-28 15:51 49.49397 11.12305 2356 ft 173 kts 100°
2026-04-28 15:51 49.49196 11.14132 2985 ft 178 kts 101°
2026-04-28 15:51 49.48974 11.16046 3570 ft 187 kts 101°
2026-04-28 15:52 49.48760 11.18096 4105 ft 203 kts 99°
2026-04-28 15:52 49.48550 11.20393 4577 ft 229 kts 101°
2026-04-28 15:52 49.47914 11.22747 5266 ft 250 kts 128°
2026-04-28 15:52 49.46529 11.24501 5983 ft 269 kts 156°
2026-04-28 15:53 49.44687 11.25106 6663 ft 275 kts 180°
2026-04-28 15:53 49.42789 11.24959 6912 ft 277 kts 186°
2026-04-28 15:53 49.40869 11.24622 6994 ft 277 kts 187°
2026-04-28 15:53 49.38955 11.24281 7003 ft 277 kts 187°
2026-04-28 15:54 49.37034 11.23983 7001 ft 277 kts 186°
2026-04-28 15:54 49.35117 11.23726 7012 ft 278 kts 185°
2026-04-28 15:54 49.33188 11.23337 7091 ft 280 kts 198°
2026-04-28 15:54 49.31563 11.21948 7093 ft 276 kts 223°
2026-04-28 15:55 49.30452 11.19485 7096 ft 277 kts 249°
2026-04-28 15:55 49.29950 11.16639 7100 ft 278 kts 256°
2026-04-28 15:55 49.29491 11.13749 7103 ft 277 kts 256°
2026-04-28 15:55 49.29029 11.10878 7104 ft 277 kts 256°
2026-04-28 15:56 49.28568 11.08050 7100 ft 277 kts 256°
2026-04-28 15:56 49.28097 11.05189 7099 ft 277 kts 256°
2026-04-28 15:56 49.27621 11.02321 7184 ft 280 kts 256°
2026-04-28 15:56 49.27137 10.99416 7765 ft 282 kts 255°
2026-04-28 15:57 49.26649 10.96500 8928 ft 281 kts 255°
2026-04-28 15:57 49.26160 10.93570 9987 ft 286 kts 256°
2026-04-28 15:57 49.25946 10.90480 10710 ft 304 kts 275°
2026-04-28 15:57 49.26577 10.87272 11138 ft 329 kts 298°
2026-04-28 15:58 49.27982 10.84453 11723 ft 344 kts 313°
2026-04-28 15:58 49.29717 10.81881 12664 ft 349 kts 316°
2026-04-28 15:58 49.31504 10.79326 13579 ft 354 kts 316°
2026-04-28 15:58 49.33285 10.76686 14447 ft 358 kts 315°
2026-04-28 15:59 49.35053 10.73957 15289 ft 363 kts 314°
2026-04-28 15:59 49.36223 10.72107 15837 ft 366 kts 314°
2026-04-28 15:59 49.38598 10.68295 16906 ft 372 kts 313°
2026-04-28 15:59 49.40394 10.65391 17678 ft 376 kts 313°
2026-04-28 16:00 49.42204 10.62461 18422 ft 381 kts 313°
2026-04-28 16:00 49.44149 10.59653 19146 ft 386 kts 322°
2026-04-28 16:00 49.46439 10.57460 19852 ft 390 kts 334°
2026-04-28 16:00 49.48957 10.56012 20534 ft 395 kts 343°
2026-04-28 16:01 49.51614 10.54826 21200 ft 399 kts 342°
2026-04-28 16:01 49.54147 10.53046 21843 ft 402 kts 327°
2026-04-28 16:01 49.56319 10.50341 22594 ft 402 kts 313°
2026-04-28 16:01 49.58041 10.46963 23385 ft 401 kts 305°
2026-04-28 16:02 49.59670 10.43438 23818 ft 410 kts 305°
2026-04-28 16:02 49.61350 10.39812 23970 ft 417 kts 305°
2026-04-28 16:02 49.63035 10.36170 23999 ft 416 kts 304°
2026-04-28 16:02 49.64391 10.32254 24003 ft 415 kts 291°
2026-04-28 16:03 49.65366 10.28053 24000 ft 415 kts 288°
2026-04-28 16:03 49.66238 10.23868 24000 ft 415 kts 287°
2026-04-28 16:03 49.67136 10.19611 24000 ft 415 kts 288°
2026-04-28 16:03 49.68060 10.15382 24000 ft 415 kts 288°
2026-04-28 16:04 49.69009 10.11161 24000 ft 415 kts 289°
2026-04-28 16:04 49.69968 10.06955 24000 ft 415 kts 289°
2026-04-28 16:04 49.70932 10.02745 24000 ft 415 kts 289°
2026-04-28 16:04 49.71572 9.99947 24000 ft 415 kts 289°
2026-04-28 16:05 49.72846 9.94375 23868 ft 413 kts 289°
2026-04-28 16:05 49.73802 9.90181 23308 ft 414 kts 289°
2026-04-28 16:05 49.74763 9.85951 22507 ft 417 kts 289°
2026-04-28 16:05 49.75720 9.81734 21958 ft 411 kts 289°
2026-04-28 16:06 49.76653 9.77616 21631 ft 400 kts 289°
2026-04-28 16:06 49.77572 9.73548 20744 ft 403 kts 289°
2026-04-28 16:06 49.78495 9.69451 19688 ft 410 kts 289°
2026-04-28 16:06 49.79433 9.65284 18929 ft 409 kts 289°
2026-04-28 16:07 49.80329 9.61296 18279 ft 405 kts 289°
2026-04-28 16:07 49.81276 9.57071 17105 ft 404 kts 289°
2026-04-28 16:07 49.82833 9.50108 14428 ft 415 kts 289°
2026-04-28 16:08 49.83771 9.45903 13230 ft 409 kts 289°
2026-04-28 16:08 49.84691 9.41767 12169 ft 400 kts 289°
2026-04-28 16:08 49.85576 9.37782 11546 ft 381 kts 288°
2026-04-28 16:09 49.87096 9.30244 11079 ft 373 kts 286°
2026-04-28 16:09 49.87828 9.26425 11001 ft 361 kts 286°
2026-04-28 16:09 49.88520 9.22835 11000 ft 348 kts 286°
2026-04-28 16:10 49.89917 9.15545 10980 ft 352 kts 286°
2026-04-28 16:10 49.90609 9.11914 10729 ft 349 kts 286°
2026-04-28 16:10 49.91818 9.05546 10110 ft 346 kts 286°
2026-04-28 16:11 49.93148 8.98545 9998 ft 347 kts 286°
2026-04-28 16:11 49.94511 8.91409 9512 ft 343 kts 286°
2026-04-28 16:12 49.95858 8.84332 9154 ft 343 kts 286°
2026-04-28 16:12 49.96529 8.80794 9091 ft 336 kts 286°
2026-04-28 16:13 49.97751 8.74218 8774 ft 300 kts 281°
2026-04-28 16:13 49.97882 8.71069 8407 ft 288 kts 264°
2026-04-28 16:13 49.96699 8.65295 8014 ft 282 kts 249°
2026-04-28 16:14 49.95325 8.59608 7999 ft 281 kts 249°
2026-04-28 16:14 49.93968 8.53950 7923 ft 281 kts 249°
2026-04-28 16:15 49.92600 8.48276 7592 ft 281 kts 249°
2026-04-28 16:15 49.91923 8.45464 7192 ft 276 kts 249°
2026-04-28 16:15 49.91249 8.42667 6790 ft 276 kts 249°